Date,TemperatureHighF,TemperatureAvgF,TemperatureLowF,DewpointHighF,DewpointAvgF,DewpointLowF,HumidityHigh,HumidityAvg,HumidityLow,PressureMaxIn,PressureMinIn,WindSpeedMaxMPH,WindSpeedAvgMPH,GustSpeedMaxMPH,PrecipitationSumIn
2013-2-1,13.1,7.7,1.0,5.2,-2.8,-9.3,70,62,61,30.29,30.11,0,0,0,0.28
2013-2-2,21.9,14.7,8.0,17.1,5.8,-2.6,83,68,55,30.14,29.99,0,0,0,0.28
2013-2-3,20.8,16.2,8.2,11.1,5.6,-2.4,71,62,59,30.02,29.93,0,0,0,0.28
2013-2-4,27.8,21.2,13.3,20.8,13.4,1.6,82,72,59,30.02,29.88,0,0,0,0.00
2013-2-5,29.8,22.0,8.8,24.1,13.4,-2.3,80,69,58,30.08,29.79,0,0,0,0.28
2013-2-6,35.2,27.8,12.4,25.9,17.0,3.5,71,64,57,30.23,30.08,8,1,8,0.28
2013-2-7,34.3,33.5,32.0,32.7,30.3,24.9,98,88,70,30.11,29.85,7,0,7,0.28
2013-2-8,31.6,26.4,23.2,30.4,21.2,17.6,95,80,73,30.38,29.96,0,0,0,0.28
2013-2-9,33.4,26.4,19.0,24.4,19.1,12.4,82,74,68,30.38,30.08,6,0,6,0.28
2013-2-10,44.9,36.5,28.0,44.4,34.0,23.4,100,91,66,30.08,29.49,16,3,16,0.43
2013-2-11,41.9,32.3,28.2,31.4,22.8,17.9,80,68,62,29.99,29.49,26,10,26,0.28
2013-2-12,28.4,25.7,22.1,18.7,16.6,14.7,76,68,62,30.08,29.91,14,4,14,0.28
2013-2-13,41.3,31.6,21.7,28.8,24.0,15.9,86,74,58,29.91,29.70,9,2,9,0.28
2013-2-14,37.7,35.0,30.4,31.9,25.9,18.4,84,70,57,29.96,29.61,15,4,15,0.28
2013-2-15,30.2,25.6,18.5,21.9,12.6,5.0,76,58,48,30.17,29.96,9,4,9,0.28
2013-2-16,20.5,15.6,10.9,8.2,2.9,-0.6,64,57,49,30.17,30.08,10,3,10,0.28
2013-2-17,28.2,19.6,8.8,11.5,4.7,-3.2,62,52,44,30.20,29.99,8,1,8,0.28
2013-2-18,48.5,38.6,26.6,45.2,28.5,11.3,97,68,52,29.99,29.40,17,4,17,0.35
2013-2-19,31.8,17.1,10.4,26.9,7.4,-1.8,82,65,57,30.14,29.52,19,8,19,0.28
2013-2-20,22.4,15.7,7.7,10.3,3.8,-4.4,65,59,55,30.35,30.14,10,4,10,0.28
2013-2-21,28.2,24.3,16.3,23.6,16.8,6.6,84,73,65,30.38,30.02,20,3,20,0.28
2013-2-22,33.6,29.0,25.5,29.7,25.1,20.7,94,85,77,30.02,29.79,13,4,13,0.00
2013-2-23,28.2,26.3,23.9,23.4,20.6,17.6,82,79,76,29.91,29.88,11,6,11,0.00